ORBCOMM FM118 [+]

Last updated on July 6, 2021, 3:36 p.m. UTC

1 41183U 15081E   21186.83137274 -.00000041  00000-0  28616-4 0  9998
2 41183  47.0028 235.1412 0000387 306.9373  53.1476 14.54893374294253
UTC
Height (km)
Latitude
Longitude
Inclination
Orbital Period
UTC large
Height (km)
Speed (km/s)
/
Latitude / Longitude
Inclination (degrees)
Orbital Period (minutes)
Azimuth
Elevation
Range (km)
Doppler Factor
iOS Compass Heading
iOS Angle